{"data":{"norad_id":65325,"intl_designator":"2025-189C","name":"STARLINK-34911","alt_names":[],"object_type":"PAYLOAD","status":"ACTIVE","operator":null,"country":"US","launch_date":"2025-08-27","launch_site_code":"AFETR","launch_vehicle":null,"mission":null,"orbit_class":"UNKNOWN","rcs_meters":null,"size_class":null,"mass_kg":null,"dimensions":null,"purposes":["comms"],"wikipedia_slug":null,"has_3d_model":false,"image_url":null,"decayed_at":null,"tle_current":{"epoch":"2026-09-20T14:21:22.851360Z","epoch_age_seconds":109568,"freshness":"FRESH","line1":"1 65325U 25189C   26263.59818115  .00021197  00000+0  63672-3 0  9999","line2":"2 65325  53.1605  18.9003 0000975  64.6098 295.5005 15.34399927 60989","mean_motion":15.34399927,"eccentricity":9.75e-5,"inclination_deg":53.1605,"raan_deg":18.9003,"arg_perigee_deg":64.6098,"mean_anomaly_deg":295.5005,"bstar":0.00063672,"rev_number":6098,"period_min":93.847762546198,"perigee_km":462.03647523392,"apogee_km":463.37043912307,"semimajor_km":6840.8404571785,"source":"CELESTRAK","updated_at":"2026-09-21T09:00:35.569145Z"}}}